Home   Weather   North Bay   Past weeks

Flag for Canada Past Weather in North Bay, Ontario, Canada — Yesterday and Last 2 Weeks

Now
45 °F

Overcast.


Feels Like: 37 °F
Forecast: 41 / 51 °F
Wind: 17 mph from Southwest

Location: North Bay

Current Time: Apr 28, 2017 at 2:03:39 pm

Latest Report: Apr 28, 2017 at 1:00 pm


Visibility: 30 mi

Pressure: 29.90 "Hg

Humidity: 71%

Dew Point: 36 °F

Location of North BayLocation

Past Weather in North Bay — Graph

°F

North Bay Temperature Yesterday

Maximum temperature yesterday: 82 °F (at 1:00 pm)
Minimum temperature yesterday: 52 °F (at 11:41 pm)
Average temperature yesterday: 63 °F

High & Low Weather Summary for the Past Weeks

 TemperatureHumidityPressure
High82 °F (Apr 27, 1:00 pm)100% (Apr 15, 5:00 pm)30.49 "Hg (Apr 15, 5:00 pm)
Low25 °F (Apr 18, 6:00 am)21% (Apr 14, 4:00 pm)29.44 "Hg (Apr 27, 5:00 pm)
Average43 °F73%29.99 "Hg
* Reported Apr 13 1:00 pm — Apr 28 1:00 pm, North Bay, Weather by CustomWeather, © 2017

Note: Actual official high and low records may vary slightly from our data, if they occured in-between our weather recording intervals... More about our weather records

Advertising

North Bay Weather History for the Previous 24 Hours

Scroll right to see more
 ConditionsComfort  
Time TempWeatherWind HumidityBarometerVisibility
1:00 pm
Fri, Apr 28
45 °FOvercast.17 mph71%29.90 "Hg30 mi
12:00 pm43 °FOvercast.21 mph76%29.89 "Hg30 mi
11:00 am45 °FOvercast.15 mph71%29.87 "Hg30 mi
10:00 am45 °FPartly sunny.15 mph76%29.86 "Hg30 mi
9:00 am43 °FOvercast.12 mph76%29.86 "Hg30 mi
8:00 am41 °FOvercast.10 mph81%29.85 "Hg30 mi
7:00 am39 °FOvercast.9 mph87%29.83 "Hg30 mi
6:03 am41 °FMostly cloudy.15 mph81%29.80 "Hg9 mi
5:13 am41 °FOvercast.14 mph87%29.77 "Hg9 mi
5:09 am41 °FMostly cloudy.16 mph87%29.77 "Hg9 mi
4:13 am41 °FMostly cloudy.15 mph93%29.74 "Hg9 mi
3:00 am43 °FOvercast.16 mph93%29.72 "Hg9 mi
2:04 am45 °FPartly cloudy.16 mph93%29.69 "Hg9 mi
1:00 am46 °FClear.15 mph93%29.64 "Hg9 mi
12:00 am50 °FPassing clouds.16 mph88%29.61 "Hg9 mi
11:41 pm
Thu, Apr 27
52 °FPartly cloudy.16 mph88%29.60 "Hg9 mi
11:26 pm54 °FMostly cloudy.13 mph88%29.59 "Hg9 mi
11:00 pm55 °FOvercast.13 mph88%29.59 "Hg9 mi
10:51 pm55 °FOvercast.13 mph94%29.59 "Hg9 mi
10:40 pm55 °FOvercast.12 mph94%29.60 "Hg9 mi
10:00 pm57 °FLight rain. Fog.10 mph94%29.59 "Hg2 mi
9:41 pm57 °FLight rain. Fog.9 mph94%29.59 "Hg2 mi
9:00 pm55 °FSprinkles. Fog.6 mph100%29.55 "Hg10 mi
8:00 pm55 °FThunderstorms. Fog.14 mph94%29.59 "Hg1 mi
7:14 pm55 °FThunderstorms. Fog.20 mph94%29.57 "Hg2 mi
7:07 pm57 °FThunderstorms. Fog.21 mph88%29.54 "Hg2 mi
6:44 pm63 °FSprinkles. Cloudy.24 mph68%29.54 "Hg30 mi
6:00 pm77 °FCloudy.17 mph42%29.44 "Hg30 mi
5:00 pm82 °FBroken clouds.24 mph35%29.44 "Hg30 mi
4:00 pm81 °FBroken clouds.20 mph37%29.48 "Hg30 mi
3:00 pm81 °FBroken clouds.16 mph39%29.49 "Hg30 mi
2:00 pm82 °FPartly sunny.24 mph35%29.52 "Hg30 mi
Weather by CustomWeather, © 2017

See weather overviewHow to use our weather pages